Location: East Arcadia
(34.1056°N, 118.0176°W)
Time: 02:19:58
(UTC+00:00)

Cosmos 1666 Rocket - Pass Details

Date: 01 April 2023
Orbit: 603 x 630 km, 82.5° (Epoch: 08 June)

Event Time Altitude Azimuth Distance (km) Brightness Sun altitude
Rises 12:07:52 0° 355° (N) 2,866 7.2 -19.3°
Reaches altitude 10° 12:10:05 10° 357° (N) 1,961 6.3 -18.9°
Maximum altitude 12:14:25 77° 83° (E) 630 3.6 -18.0°
Drops below altitude 10° 12:18:46 10° 170° (S) 1,963 6.0 -17.2°
Sets 12:20:59 0° 171° (S) 2,868 6.9 -16.7°
